Time,TemperatureF,DewpointF,PressureIn,WindDirection,WindDirectionDegrees,WindSpeedMPH,WindSpeedGustMPH,Humidity,HourlyPrecipIn,Conditions,Clouds,dailyrainin,SoftwareType,DateUTC
2013-02-22 00:04:00,40.3,38.0,30.25,ENE,64,2.0,3.0,91,0.05,,,0.09,weatherlink.com 1.10,2013-02-22 05:04:00,
2013-02-22 00:19:00,40.1,38.0,30.26,ENE,64,0.0,1.0,92,0.07,,,0.12,weatherlink.com 1.10,2013-02-22 05:19:00,
2013-02-22 00:34:00,39.5,38.0,30.23,ESE,107,0.0,4.0,93,0.09,,,0.15,weatherlink.com 1.10,2013-02-22 05:34:00,
2013-02-22 00:49:00,39.1,37.0,30.25,NE,50,1.0,5.0,92,0.10,,,0.18,weatherlink.com 1.10,2013-02-22 05:49:00,
2013-02-22 01:04:00,39.0,37.0,30.27,NE,35,0.0,5.0,93,0.12,,,0.02,weatherlink.com 1.10,2013-02-22 06:04:00,
2013-02-22 01:19:00,39.0,37.0,30.29,NNE,28,0.0,2.0,93,0.12,,,0.05,weatherlink.com 1.10,2013-02-22 06:19:00,
2013-02-22 01:34:00,38.6,37.0,30.28,ESE,107,0.0,2.0,93,0.13,,,0.09,weatherlink.com 1.10,2013-02-22 06:34:00,
2013-02-22 01:49:00,38.2,37.0,30.28,ESE,120,1.0,4.0,94,0.13,,,0.12,weatherlink.com 1.10,2013-02-22 06:49:00,
2013-02-22 02:04:00,38.1,37.0,30.28,ESE,120,0.0,0.0,94,0.12,,,0.15,weatherlink.com 1.10,2013-02-22 07:04:00,
2013-02-22 02:19:00,38.0,37.0,30.27,ESE,120,1.0,1.0,94,0.12,,,0.18,weatherlink.com 1.10,2013-02-22 07:19:00,
2013-02-22 02:34:00,37.1,36.0,30.25,East,81,1.0,8.0,95,0.12,,,0.21,weatherlink.com 1.10,2013-02-22 07:34:00,
2013-02-22 02:49:00,37.3,36.0,30.27,NNW,339,1.0,4.0,96,0.12,,,0.24,weatherlink.com 1.10,2013-02-22 07:49:00,
2013-02-22 03:04:00,37.1,36.0,30.25,ESE,102,0.0,5.0,95,0.12,,,0.27,weatherlink.com 1.10,2013-02-22 08:04:00,
2013-02-22 03:19:00,37.1,36.0,30.26,East,89,0.0,0.0,96,0.11,,,0.29,weatherlink.com 1.10,2013-02-22 08:19:00,
2013-02-22 03:34:00,37.1,36.0,30.23,East,89,0.0,2.0,95,0.10,,,0.32,weatherlink.com 1.10,2013-02-22 08:34:00,
2013-02-22 03:49:00,36.9,36.0,30.24,East,89,0.0,2.0,95,0.09,,,0.34,weatherlink.com 1.10,2013-02-22 08:49:00,
2013-02-22 04:04:00,36.9,36.0,30.22,ENE,77,2.0,3.0,96,0.09,,,0.36,weatherlink.com 1.10,2013-02-22 09:04:00,
2013-02-22 04:19:00,36.8,36.0,30.23,NE,56,0.0,4.0,95,0.09,,,0.38,weatherlink.com 1.10,2013-02-22 09:19:00,
2013-02-22 04:34:00,36.7,36.0,30.24,ENE,72,0.0,1.0,96,0.07,,,0.39,weatherlink.com 1.10,2013-02-22 09:34:00,
2013-02-22 04:49:00,36.9,36.0,30.25,ENE,73,0.0,1.0,96,0.07,,,0.41,weatherlink.com 1.10,2013-02-22 09:49:00,
2013-02-22 05:04:00,36.8,36.0,30.25,ENE,72,0.0,2.0,96,0.06,,,0.42,weatherlink.com 1.10,2013-02-22 10:04:00,
2013-02-22 05:19:00,36.7,36.0,30.24,East,86,0.0,3.0,96,0.05,,,0.43,weatherlink.com 1.10,2013-02-22 10:19:00,
2013-02-22 05:34:00,36.6,36.0,30.24,ENE,75,0.0,3.0,96,0.05,,,0.44,weatherlink.com 1.10,2013-02-22 10:34:00,
2013-02-22 05:49:00,36.6,36.0,30.26,ENE,75,0.0,2.0,96,0.04,,,0.45,weatherlink.com 1.10,2013-02-22 10:49:00,
2013-02-22 06:04:00,36.6,36.0,30.26,ENE,75,0.0,2.0,96,0.04,,,0.46,weatherlink.com 1.10,2013-02-22 11:04:00,
2013-02-22 06:19:00,36.6,36.0,30.26,ENE,75,0.0,2.0,96,0.03,,,0.46,weatherlink.com 1.10,2013-02-22 11:19:00,
2013-02-22 06:34:00,36.6,36.0,30.27,ENE,75,0.0,2.0,96,0.02,,,0.46,weatherlink.com 1.10,2013-02-22 11:34:00,
2013-02-22 06:49:00,36.7,36.0,30.26,ENE,75,0.0,2.0,96,0.01,,,0.46,weatherlink.com 1.10,2013-02-22 11:49:00,
2013-02-22 07:04:00,36.8,36.0,30.26,ENE,75,0.0,1.0,96,0.00,,,0.46,weatherlink.com 1.10,2013-02-22 12:04:00,
2013-02-22 07:19:00,36.8,36.0,30.26,ENE,73,1.0,2.0,96,0.01,,,0.47,weatherlink.com 1.10,2013-02-22 12:19:00,
2013-02-22 07:34:00,36.8,36.0,30.25,ENE,73,2.0,3.0,96,0.01,,,0.47,weatherlink.com 1.10,2013-02-22 12:34:00,
2013-02-22 07:50:00,36.8,36.0,30.25,East,82,0.0,3.0,96,0.01,,,0.47,weatherlink.com 1.10,2013-02-22 12:50:00,
2013-02-22 08:05:00,37.0,36.0,30.25,NE,52,4.0,5.0,96,0.01,,,0.47,weatherlink.com 1.10,2013-02-22 13:05:00,
2013-02-22 08:20:00,37.1,36.0,30.25,East,94,0.0,3.0,96,0.00,,,0.47,weatherlink.com 1.10,2013-02-22 13:20:00,
2013-02-22 08:35:00,37.3,36.0,30.25,East,97,0.0,3.0,96,0.00,,,0.47,weatherlink.com 1.10,2013-02-22 13:35:00,
2013-02-22 08:50:00,37.5,37.0,30.25,ENE,70,2.0,4.0,96,0.00,,,0.47,weatherlink.com 1.10,2013-02-22 13:50:00,
2013-02-22 09:05:00,37.6,37.0,30.25,ENE,69,0.0,4.0,96,0.00,,,0.47,weatherlink.com 1.10,2013-02-22 14:05:00,
2013-02-22 09:20:00,37.6,37.0,30.25,NNW,329,0.0,3.0,96,0.00,,,0.47,weatherlink.com 1.10,2013-02-22 14:20:00,
2013-02-22 09:35:00,37.5,36.0,30.25,ENE,75,0.0,4.0,95,0.00,,,0.47,weatherlink.com 1.10,2013-02-22 14:35:00,
2013-02-22 09:50:00,37.8,37.0,30.25,ENE,75,0.0,2.0,95,0.00,,,0.47,weatherlink.com 1.10,2013-02-22 14:50:00,
2013-02-22 10:05:00,38.1,37.0,30.24,East,97,2.0,3.0,95,0.00,,,0.47,weatherlink.com 1.10,2013-02-22 15:05:00,
2013-02-22 10:20:00,38.4,37.0,30.25,NE,54,0.0,2.0,95,0.00,,,0.47,weatherlink.com 1.10,2013-02-22 15:20:00,
2013-02-22 10:35:00,38.7,37.0,30.25,East,95,0.0,3.0,95,0.00,,,0.47,weatherlink.com 1.10,2013-02-22 15:35:00,
2013-02-22 10:50:00,39.4,38.0,30.25,East,84,0.0,3.0,94,0.00,,,0.47,weatherlink.com 1.10,2013-02-22 15:50:00,
2013-02-22 11:05:00,39.7,38.0,30.24,East,84,1.0,3.0,92,0.00,,,0.47,weatherlink.com 1.10,2013-02-22 16:05:00,
2013-02-22 11:20:00,39.8,37.0,30.25,East,85,1.0,5.0,89,0.00,,,0.47,weatherlink.com 1.10,2013-02-22 16:20:00,
2013-02-22 11:35:00,40.2,36.0,30.24,SSE,156,0.0,3.0,84,0.00,,,0.47,weatherlink.com 1.10,2013-02-22 16:35:00,
2013-02-22 11:50:00,40.1,36.0,30.24,SSE,156,0.0,3.0,84,0.00,,,0.47,weatherlink.com 1.10,2013-02-22 16:50:00,
2013-02-22 12:05:00,40.2,36.0,30.23,ESE,122,0.0,4.0,85,0.00,,,0.47,weatherlink.com 1.10,2013-02-22 17:05:00,
2013-02-22 12:20:00,40.1,36.0,30.22,ESE,115,0.0,3.0,85,0.00,,,0.47,weatherlink.com 1.10,2013-02-22 17:20:00,
2013-02-22 12:35:00,40.2,36.0,30.21,NE,42,1.0,1.0,86,0.00,,,0.47,weatherlink.com 1.10,2013-02-22 17:35:00,
2013-02-22 12:50:00,40.2,36.0,30.20,East,100,0.0,2.0,86,0.00,,,0.47,weatherlink.com 1.10,2013-02-22 17:50:00,
2013-02-22 13:05:00,39.9,36.0,30.20,ENE,62,0.0,4.0,87,0.00,,,0.47,weatherlink.com 1.10,2013-02-22 18:05:00,
2013-02-22 13:20:00,39.6,37.0,30.19,NE,54,1.0,4.0,90,0.00,,,0.47,weatherlink.com 1.10,2013-02-22 18:20:00,
2013-02-22 13:35:00,39.5,37.0,30.20,NE,42,0.0,2.0,90,0.00,,,0.47,weatherlink.com 1.10,2013-02-22 18:35:00,
2013-02-22 13:50:00,39.5,38.0,30.19,NE,41,2.0,2.0,93,0.00,,,0.47,weatherlink.com 1.10,2013-02-22 18:50:00,
2013-02-22 14:05:00,39.4,38.0,30.18,ESE,110,0.0,3.0,93,0.00,,,0.47,weatherlink.com 1.10,2013-02-22 19:05:00,
2013-02-22 14:20:00,39.4,37.0,30.18,East,100,1.0,4.0,92,0.00,,,0.47,weatherlink.com 1.10,2013-02-22 19:20:00,
2013-02-22 14:35:00,39.6,38.0,30.18,East,99,0.0,2.0,92,0.00,,,0.47,weatherlink.com 1.10,2013-02-22 19:35:00,
2013-02-22 14:50:00,39.8,38.0,30.18,NNE,28,2.0,5.0,92,0.00,,,0.47,weatherlink.com 1.10,2013-02-22 19:50:00,
2013-02-22 15:05:00,40.0,38.0,30.17,East,95,0.0,3.0,92,0.00,,,0.47,weatherlink.com 1.10,2013-02-22 20:05:00,
2013-02-22 15:20:00,40.1,38.0,30.17,East,98,0.0,2.0,92,0.00,,,0.47,weatherlink.com 1.10,2013-02-22 20:20:00,
2013-02-22 15:35:00,40.2,38.0,30.17,East,88,0.0,2.0,93,0.01,,,0.48,weatherlink.com 1.10,2013-02-22 20:35:00,
2013-02-22 15:50:00,40.1,38.0,30.17,East,89,0.0,2.0,93,0.01,,,0.48,weatherlink.com 1.10,2013-02-22 20:50:00,
2013-02-22 16:05:00,40.0,39.0,30.16,East,88,2.0,2.0,94,0.01,,,0.48,weatherlink.com 1.10,2013-02-22 21:05:00,
2013-02-22 16:20:00,40.0,39.0,30.16,East,100,2.0,2.0,95,0.01,,,0.48,weatherlink.com 1.10,2013-02-22 21:20:00,
2013-02-22 16:35:00,40.2,39.0,30.17,ESE,103,0.0,1.0,95,0.00,,,0.48,weatherlink.com 1.10,2013-02-22 21:35:00,
2013-02-22 16:50:00,40.1,39.0,30.16,ESE,108,0.0,3.0,95,0.00,,,0.48,weatherlink.com 1.10,2013-02-22 21:50:00,
2013-02-22 17:05:00,39.8,39.0,30.15,SE,126,3.0,4.0,95,0.00,,,0.48,weatherlink.com 1.10,2013-02-22 22:05:00,
2013-02-22 17:20:00,39.7,39.0,30.14,ESE,116,2.0,3.0,96,0.00,,,0.48,weatherlink.com 1.10,2013-02-22 22:20:00,
2013-02-22 17:35:00,39.7,39.0,30.14,ESE,121,0.0,2.0,96,0.00,,,0.48,weatherlink.com 1.10,2013-02-22 22:35:00,
2013-02-22 17:50:00,39.6,39.0,30.15,ESE,120,0.0,2.0,96,0.00,,,0.48,weatherlink.com 1.10,2013-02-22 22:50:00,
2013-02-22 18:05:00,39.5,39.0,30.15,ESE,120,1.0,3.0,96,0.00,,,0.48,weatherlink.com 1.10,2013-02-22 23:05:00,
2013-02-22 18:20:00,39.4,39.0,30.15,ESE,120,3.0,3.0,97,0.00,,,0.48,weatherlink.com 1.10,2013-02-22 23:20:00,
2013-02-22 18:35:00,39.0,38.0,30.16,ESE,122,2.0,4.0,96,0.00,,,0.48,weatherlink.com 1.10,2013-02-22 23:35:00,
2013-02-22 18:50:00,38.7,38.0,30.16,ESE,111,3.0,5.0,96,0.00,,,0.48,weatherlink.com 1.10,2013-02-22 23:50:00,
2013-02-22 19:05:00,38.6,38.0,30.16,ESE,123,1.0,4.0,97,0.00,,,0.48,weatherlink.com 1.10,2013-02-23 00:05:00,
2013-02-22 19:20:00,38.6,38.0,30.15,ESE,123,0.0,3.0,97,0.00,,,0.48,weatherlink.com 1.10,2013-02-23 00:20:00,
2013-02-22 19:35:00,38.5,38.0,30.16,ESE,123,1.0,3.0,97,0.00,,,0.48,weatherlink.com 1.10,2013-02-23 00:35:00,
2013-02-22 19:50:00,38.6,38.0,30.16,ESE,123,0.0,1.0,97,0.00,,,0.48,weatherlink.com 1.10,2013-02-23 00:50:00,
2013-02-22 20:05:00,38.6,38.0,30.17,ESE,123,0.0,2.0,97,0.00,,,0.48,weatherlink.com 1.10,2013-02-23 01:05:00,
2013-02-22 20:20:00,38.6,38.0,30.16,ESE,122,1.0,1.0,97,0.00,,,0.48,weatherlink.com 1.10,2013-02-23 01:20:00,
2013-02-22 20:35:00,38.6,38.0,30.16,ESE,123,0.0,1.0,97,0.00,,,0.48,weatherlink.com 1.10,2013-02-23 01:35:00,
2013-02-22 20:50:00,38.6,38.0,30.17,ESE,122,1.0,1.0,97,0.01,,,0.49,weatherlink.com 1.10,2013-02-23 01:50:00,
2013-02-22 21:05:00,38.6,38.0,30.17,ESE,122,0.0,1.0,98,0.01,,,0.49,weatherlink.com 1.10,2013-02-23 02:05:00,
2013-02-22 21:20:00,38.4,38.0,30.17,ESE,123,0.0,3.0,97,0.01,,,0.49,weatherlink.com 1.10,2013-02-23 02:20:00,
2013-02-22 21:35:00,38.4,38.0,30.17,ESE,122,1.0,1.0,97,0.01,,,0.49,weatherlink.com 1.10,2013-02-23 02:35:00,
2013-02-22 21:50:00,38.4,38.0,30.17,ESE,122,0.0,1.0,98,0.00,,,0.49,weatherlink.com 1.10,2013-02-23 02:50:00,
2013-02-22 22:05:00,38.3,38.0,30.16,ESE,122,1.0,2.0,98,0.00,,,0.49,weatherlink.com 1.10,2013-02-23 03:05:00,
2013-02-22 22:20:00,38.3,38.0,30.14,ESE,123,2.0,3.0,98,0.00,,,0.49,weatherlink.com 1.10,2013-02-23 03:20:00,
2013-02-22 22:35:00,38.1,38.0,30.13,ESE,122,2.0,3.0,98,0.00,,,0.49,weatherlink.com 1.10,2013-02-23 03:35:00,
2013-02-22 22:50:00,37.9,37.0,30.15,ESE,123,2.0,2.0,98,0.00,,,0.49,weatherlink.com 1.10,2013-02-23 03:50:00,
2013-02-22 23:05:00,37.8,37.0,30.15,ESE,122,0.0,2.0,98,0.01,,,0.50,weatherlink.com 1.10,2013-02-23 04:05:00,
2013-02-22 23:20:00,37.7,37.0,30.13,ESE,122,2.0,3.0,98,0.01,,,0.50,weatherlink.com 1.10,2013-02-23 04:20:00,
2013-02-22 23:35:00,37.7,37.0,30.13,ESE,122,0.0,2.0,98,0.01,,,0.50,weatherlink.com 1.10,2013-02-23 04:35:00,
2013-02-22 23:50:00,37.9,37.0,30.15,South,174,5.0,5.0,98,0.01,,,0.50,weatherlink.com 1.10,2013-02-23 04:50:00,